WZZ227 EPRZ-LBSF

Flight info

Callsign WZZ227
Flight time 1h 18m
Altitude 37000
Route LUXAR DCT PODAN DCT KENIN DCT KARIL DCT BUKAN DCT TITEK DCT OSTOV M748 GOL
Aircraft A320/M-SDE3FGHIRWY/LB1

Departure

Time 2026-04-26 18:21
Airport Rzeszów-Jasionka Airport (EPRZ)

Arrival

Time 2026-04-26 19:39
Airport Sofia Airport (LBSF)
Time Latitude Longitude Altitude Speed Heading
2026-04-26 17:58 50.11421 22.02627 692 ft 0 kts
2026-04-26 18:08 50.11417 22.02627 664 ft 3 kts
2026-04-26 18:08 50.11391 22.02627 684 ft 4 kts
2026-04-26 18:08 50.11364 22.02626 686 ft 4 kts
2026-04-26 18:09 50.11338 22.02616 688 ft 4 kts 32°
2026-04-26 18:09 50.11323 22.02589 683 ft 4 kts 85°
2026-04-26 18:09 50.11322 22.02574 684 ft 0 kts 91°
2026-04-26 18:14 50.11322 22.02579 684 ft 3 kts 91°
2026-04-26 18:14 50.11322 22.02663 688 ft 1 kts 91°
2026-04-26 18:14 50.11321 22.02680 690 ft 5 kts 91°
2026-04-26 18:15 50.11294 22.02739 687 ft 8 kts 156°
2026-04-26 18:15 50.11212 22.02743 684 ft 15 kts 182°
2026-04-26 18:15 50.11114 22.02740 691 ft 11 kts 180°
2026-04-26 18:15 50.11088 22.02740 690 ft 0 kts 180°
2026-04-26 18:16 50.10987 22.02813 688 ft 15 kts 98°
2026-04-26 18:16 50.10980 22.03059 689 ft 28 kts 91°
2026-04-26 18:17 50.10976 22.03388 690 ft 32 kts 91°
2026-04-26 18:17 50.10971 22.03751 684 ft 36 kts 91°
2026-04-26 18:17 50.10967 22.04150 681 ft 38 kts 91°
2026-04-26 18:17 50.10962 22.04476 680 ft 17 kts 96°
2026-04-26 18:18 50.10951 22.04596 676 ft 4 kts 33°
2026-04-26 18:18 50.10959 22.04562 679 ft 0 kts 276°
2026-04-26 18:18 50.10960 22.04553 678 ft 0 kts 276°
2026-04-26 18:20 50.10960 22.04551 678 ft 3 kts 276°
2026-04-26 18:20 50.10967 22.04131 681 ft 72 kts 271°
2026-04-26 18:20 50.10981 22.03058 689 ft 123 kts 271°
2026-04-26 18:20 50.10992 22.02057 695 ft 151 kts 271°
2026-04-26 18:21 50.11023 21.99720 1111 ft 171 kts 274°
2026-04-26 18:21 50.11070 21.97820 1590 ft 179 kts 276°
2026-04-26 18:21 50.11136 21.95862 2175 ft 183 kts 278°
2026-04-26 18:21 50.11201 21.93848 2662 ft 194 kts 277°
2026-04-26 18:22 50.11224 21.91632 2947 ft 217 kts 276°
2026-04-26 18:22 50.11239 21.89154 3359 ft 239 kts 275°
2026-04-26 18:22 50.11249 21.86511 4156 ft 246 kts 275°
2026-04-26 18:22 50.11260 21.83825 5104 ft 249 kts 275°
2026-04-26 18:23 50.11274 21.81119 6008 ft 252 kts 275°
2026-04-26 18:23 50.11293 21.78374 6902 ft 254 kts 276°
2026-04-26 18:23 50.11315 21.75599 7737 ft 258 kts 276°
2026-04-26 18:23 50.11329 21.72782 8548 ft 263 kts 274°
2026-04-26 18:24 50.10876 21.69948 9332 ft 281 kts 251°
2026-04-26 18:24 50.09985 21.67207 10131 ft 286 kts 250°
2026-04-26 18:24 50.09046 21.64415 10624 ft 300 kts 250°
2026-04-26 18:24 50.08038 21.61424 10836 ft 322 kts 250°
2026-04-26 18:25 50.06974 21.58289 11362 ft 331 kts 250°
2026-04-26 18:25 50.05883 21.55100 12062 ft 335 kts 250°
2026-04-26 18:25 50.04780 21.51891 12777 ft 338 kts 251°
2026-04-26 18:25 50.03669 21.48653 13481 ft 340 kts 251°
2026-04-26 18:26 50.02569 21.45436 14000 ft 343 kts 251°
2026-04-26 18:26 50.01450 21.42161 14174 ft 343 kts 251°
2026-04-26 18:26 50.00331 21.38886 14219 ft 343 kts 251°
2026-04-26 18:26 49.99209 21.35612 14254 ft 344 kts 251°
2026-04-26 18:27 49.98080 21.32313 14815 ft 346 kts 251°
2026-04-26 18:27 49.96948 21.29001 15439 ft 348 kts 251°
2026-04-26 18:27 49.95801 21.25671 16038 ft 352 kts 249°
2026-04-26 18:27 49.94220 21.22637 16598 ft 376 kts 230°
2026-04-26 18:28 49.91898 21.20501 17136 ft 400 kts 208°
2026-04-26 18:28 49.89128 21.19523 17677 ft 419 kts 188°
2026-04-26 18:28 49.86183 21.19995 18190 ft 434 kts 167°
2026-04-26 18:28 49.83278 21.21390 18687 ft 439 kts 164°
2026-04-26 18:29 49.80368 21.22857 19219 ft 441 kts 164°
2026-04-26 18:29 49.77455 21.24344 19749 ft 443 kts 164°
2026-04-26 18:29 49.74515 21.25842 20247 ft 447 kts 165°
2026-04-26 18:29 49.71545 21.27339 20732 ft 450 kts 165°
2026-04-26 18:30 49.68555 21.28832 21211 ft 453 kts 166°
2026-04-26 18:30 49.65583 21.30307 21674 ft 456 kts 166°
2026-04-26 18:30 49.62515 21.31823 22168 ft 458 kts 166°
2026-04-26 18:30 49.59467 21.33323 22634 ft 461 kts 166°
2026-04-26 18:31 49.56408 21.34831 23091 ft 462 kts 166°
2026-04-26 18:31 49.53344 21.36345 23665 ft 463 kts 166°
2026-04-26 18:31 49.50316 21.37841 24091 ft 464 kts 167°
2026-04-26 18:31 49.47231 21.39362 24491 ft 466 kts 167°
2026-04-26 18:32 49.44135 21.40889 24888 ft 468 kts 167°
2026-04-26 18:32 49.41032 21.42414 25277 ft 470 kts 167°
2026-04-26 18:32 49.37909 21.43939 25670 ft 472 kts 167°
2026-04-26 18:32 49.34769 21.45469 26002 ft 475 kts 167°
2026-04-26 18:33 49.31609 21.47011 26384 ft 477 kts 167°
2026-04-26 18:33 49.28440 21.48556 26780 ft 478 kts 167°
2026-04-26 18:33 49.25269 21.50102 27196 ft 479 kts 167°
2026-04-26 18:33 49.22091 21.51648 27566 ft 480 kts 167°
2026-04-26 18:34 49.18901 21.53196 27936 ft 482 kts 168°
2026-04-26 18:34 49.15690 21.54755 28307 ft 484 kts 168°
2026-04-26 18:34 49.12471 21.56314 28680 ft 486 kts 168°
2026-04-26 18:34 49.09238 21.57878 29049 ft 488 kts 168°
2026-04-26 18:35 49.06036 21.59429 29407 ft 491 kts 168°
2026-04-26 18:35 49.02779 21.61009 29775 ft 493 kts 168°
2026-04-26 18:35 48.99499 21.62596 30109 ft 496 kts 168°
2026-04-26 18:35 48.96200 21.64190 30393 ft 499 kts 168°
2026-04-26 18:36 48.92889 21.65786 30692 ft 501 kts 168°
2026-04-26 18:36 48.89569 21.67383 31123 ft 499 kts 168°
2026-04-26 18:36 48.86268 21.68967 31569 ft 497 kts 168°
2026-04-26 18:36 48.82981 21.70542 32024 ft 495 kts 168°
2026-04-26 18:37 48.79702 21.72111 32450 ft 493 kts 168°
2026-04-26 18:37 48.76443 21.73664 32953 ft 489 kts 168°
2026-04-26 18:37 48.73202 21.75207 33451 ft 487 kts 168°
2026-04-26 18:37 48.69979 21.76743 33925 ft 485 kts 168°
2026-04-26 18:38 48.66771 21.78269 34357 ft 483 kts 168°
2026-04-26 18:38 48.63573 21.79787 34716 ft 481 kts 168°
2026-04-26 18:38 48.60377 21.81302 35056 ft 481 kts 168°
2026-04-26 18:38 48.57181 21.82815 35193 ft 481 kts 168°
2026-04-26 18:39 48.50813 21.85836 35223 ft 477 kts 168°
2026-04-26 18:39 48.44508 21.88809 35220 ft 474 kts 168°
2026-04-26 18:40 48.38212 21.91775 35222 ft 475 kts 166°
2026-04-26 18:40 48.31973 21.95041 35221 ft 473 kts 170°
2026-04-26 18:41 48.25647 21.97726 35221 ft 471 kts 169°
2026-04-26 18:41 48.19367 22.00545 35206 ft 471 kts 168°
2026-04-26 18:42 48.13111 22.03431 35218 ft 470 kts 168°
2026-04-26 18:42 48.07910 22.05820 35218 ft 470 kts 168°
2026-04-26 18:43 48.00639 22.09113 35213 ft 468 kts 168°
2026-04-26 18:43 47.94421 22.11899 35214 ft 466 kts 169°
2026-04-26 18:44 47.89214 22.14229 35213 ft 468 kts 169°
2026-04-26 18:44 47.82966 22.17033 35212 ft 469 kts 168°
2026-04-26 18:45 47.76724 22.19846 35197 ft 468 kts 168°
2026-04-26 18:45 47.70513 22.22624 35210 ft 466 kts 169°
2026-04-26 18:46 47.64295 22.25312 35207 ft 465 kts 169°
2026-04-26 18:46 47.58075 22.27966 35205 ft 465 kts 169°
2026-04-26 18:47 47.51901 22.30616 35194 ft 463 kts 169°
2026-04-26 18:47 47.45731 22.33271 35206 ft 461 kts 169°
2026-04-26 18:48 47.39575 22.35896 35212 ft 460 kts 169°
2026-04-26 18:48 47.33419 22.38508 35209 ft 460 kts 169°
2026-04-26 18:49 47.27258 22.41125 35205 ft 459 kts 169°
2026-04-26 18:49 47.21119 22.43740 35220 ft 459 kts 169°
2026-04-26 18:50 47.14967 22.46348 35207 ft 461 kts 169°
2026-04-26 18:50 47.08841 22.48928 35209 ft 461 kts 169°
2026-04-26 18:51 47.02674 22.51526 35207 ft 461 kts 169°
2026-04-26 18:51 46.96522 22.54118 35206 ft 460 kts 169°
2026-04-26 18:52 46.90372 22.56692 35211 ft 460 kts 169°
2026-04-26 18:52 46.84219 22.59260 35211 ft 460 kts 169°
2026-04-26 18:53 46.78057 22.61831 35211 ft 460 kts 169°
2026-04-26 18:53 46.71905 22.64405 35214 ft 460 kts 169°
2026-04-26 18:54 46.65760 22.66962 35219 ft 459 kts 169°
2026-04-26 18:54 46.59608 22.69499 35215 ft 459 kts 169°
2026-04-26 18:55 46.53458 22.72028 35222 ft 459 kts 169°
2026-04-26 18:55 46.47308 22.74559 35218 ft 460 kts 169°
2026-04-26 18:56 46.41140 22.77106 35212 ft 461 kts 169°
2026-04-26 18:56 46.34978 22.79635 35215 ft 460 kts 169°
2026-04-26 18:57 46.29856 22.81737 35204 ft 459 kts 169°
2026-04-26 18:57 46.22672 22.84674 35202 ft 459 kts 169°
2026-04-26 18:58 46.16564 22.87154 35202 ft 459 kts 169°
2026-04-26 18:58 46.10413 22.89657 35196 ft 460 kts 169°
2026-04-26 18:59 46.04270 22.92156 35191 ft 457 kts 169°
2026-04-26 18:59 45.98153 22.94628 35192 ft 456 kts 169°
2026-04-26 19:00 45.92044 22.97095 35193 ft 456 kts 169°
2026-04-26 19:00 45.85931 22.99554 35185 ft 456 kts 169°
2026-04-26 19:01 45.79832 23.02012 35191 ft 453 kts 169°
2026-04-26 19:01 45.73777 23.04443 35186 ft 451 kts 169°
2026-04-26 19:02 45.67731 23.06850 35192 ft 451 kts 169°
2026-04-26 19:02 45.62705 23.08855 35180 ft 451 kts 169°
2026-04-26 19:03 45.55684 23.11653 35171 ft 451 kts 168°
2026-04-26 19:03 45.49633 23.14068 35172 ft 451 kts 168°
2026-04-26 19:04 45.43571 23.16476 35152 ft 455 kts 169°
2026-04-26 19:04 45.37450 23.18889 35139 ft 458 kts 168°
2026-04-26 19:05 45.28211 23.22519 35129 ft 460 kts 168°
2026-04-26 19:06 45.22049 23.24946 35129 ft 459 kts 168°
2026-04-26 19:06 45.15906 23.27367 35092 ft 458 kts 168°
2026-04-26 19:07 45.09787 23.29772 35103 ft 456 kts 168°
2026-04-26 19:07 45.03676 23.32151 35099 ft 455 kts 168°
2026-04-26 19:08 44.97565 23.34532 35093 ft 456 kts 168°
2026-04-26 19:08 44.91501 23.36902 35087 ft 454 kts 168°
2026-04-26 19:09 44.85408 23.39258 35088 ft 454 kts 168°
2026-04-26 19:09 44.79323 23.41604 35083 ft 455 kts 168°
2026-04-26 19:10 44.73233 23.43967 34774 ft 450 kts 168°
2026-04-26 19:10 44.70228 23.45131 34361 ft 446 kts 168°
2026-04-26 19:10 44.67246 23.46283 33950 ft 442 kts 168°
2026-04-26 19:10 44.64288 23.47423 33479 ft 439 kts 168°
2026-04-26 19:11 44.61350 23.48555 32998 ft 436 kts 168°
2026-04-26 19:11 44.58432 23.49677 32547 ft 433 kts 167°
2026-04-26 19:11 44.55537 23.50789 32109 ft 430 kts 167°
2026-04-26 19:11 44.52661 23.51892 31648 ft 427 kts 167°
2026-04-26 19:12 44.49805 23.52986 31216 ft 424 kts 167°
2026-04-26 19:12 44.46969 23.54072 30786 ft 421 kts 167°
2026-04-26 19:12 44.44147 23.55150 30328 ft 420 kts 167°
2026-04-26 19:12 44.41331 23.56223 29856 ft 418 kts 167°
2026-04-26 19:13 44.38528 23.57291 29383 ft 416 kts 167°
2026-04-26 19:13 44.35748 23.58350 29071 ft 413 kts 167°
2026-04-26 19:13 44.32970 23.59404 29079 ft 414 kts 167°
2026-04-26 19:14 44.27404 23.61516 29073 ft 415 kts 167°
2026-04-26 19:14 44.21829 23.63636 29075 ft 415 kts 167°
2026-04-26 19:15 44.16257 23.65752 29079 ft 415 kts 167°
2026-04-26 19:15 44.10669 23.67858 29074 ft 416 kts 167°
2026-04-26 19:16 44.05120 23.69952 29078 ft 416 kts 167°
2026-04-26 19:16 43.99539 23.72058 29069 ft 414 kts 167°
2026-04-26 19:17 43.94039 23.74405 29042 ft 416 kts 160°
2026-04-26 19:17 43.91360 23.75900 28764 ft 414 kts 159°
2026-04-26 19:17 43.88701 23.77419 28482 ft 412 kts 159°
2026-04-26 19:17 43.86057 23.78943 28220 ft 411 kts 159°
2026-04-26 19:18 43.83426 23.80462 27813 ft 408 kts 159°
2026-04-26 19:18 43.80810 23.81967 27391 ft 406 kts 159°
2026-04-26 19:18 43.78212 23.83458 27000 ft 402 kts 159°
2026-04-26 19:18 43.75633 23.84932 26593 ft 400 kts 159°
2026-04-26 19:19 43.73065 23.86390 26184 ft 398 kts 159°
2026-04-26 19:19 43.70510 23.87837 25798 ft 396 kts 159°
2026-04-26 19:19 43.68005 23.89251 25386 ft 394 kts 159°
2026-04-26 19:19 43.65476 23.90680 24981 ft 392 kts 159°
2026-04-26 19:20 43.62961 23.92103 24580 ft 390 kts 159°
2026-04-26 19:20 43.61265 23.93061 24308 ft 389 kts 158°
2026-04-26 19:20 43.57959 23.94925 23804 ft 385 kts 158°
2026-04-26 19:20 43.55487 23.96321 23415 ft 382 kts 158°
2026-04-26 19:21 43.53033 23.97708 22969 ft 380 kts 158°
2026-04-26 19:21 43.50596 23.99086 22530 ft 378 kts 158°
2026-04-26 19:21 43.48171 24.00450 22106 ft 376 kts 159°
2026-04-26 19:21 43.45757 24.01806 21674 ft 373 kts 159°
2026-04-26 19:22 43.43356 24.03152 21264 ft 371 kts 159°
2026-04-26 19:22 43.40968 24.04491 20858 ft 369 kts 159°
2026-04-26 19:22 43.38592 24.05823 20452 ft 367 kts 159°
2026-04-26 19:22 43.36232 24.07144 20042 ft 366 kts 159°
2026-04-26 19:23 43.33887 24.08459 19663 ft 363 kts 159°
2026-04-26 19:23 43.31552 24.09765 19287 ft 361 kts 159°
2026-04-26 19:23 43.29232 24.11062 18907 ft 360 kts 159°
2026-04-26 19:23 43.26912 24.12361 18512 ft 360 kts 159°
2026-04-26 19:24 43.24600 24.13655 18103 ft 359 kts 159°
2026-04-26 19:24 43.22292 24.14943 17712 ft 357 kts 159°
2026-04-26 19:24 43.17754 24.17476 16946 ft 352 kts 159°
2026-04-26 19:25 43.15490 24.18732 16594 ft 350 kts 161°
2026-04-26 19:25 43.14711 24.19096 16467 ft 348 kts 166°
2026-04-26 19:25 43.10800 24.19267 15882 ft 336 kts 198°
2026-04-26 19:25 43.08631 24.18185 15526 ft 331 kts 206°
2026-04-26 19:26 43.06512 24.16967 15174 ft 329 kts 206°
2026-04-26 19:26 43.04413 24.15740 14840 ft 327 kts 207°
2026-04-26 19:26 43.02327 24.14511 14526 ft 325 kts 207°
2026-04-26 19:26 43.00253 24.13290 14199 ft 324 kts 207°
2026-04-26 19:27 42.98188 24.12083 13878 ft 322 kts 207°
2026-04-26 19:27 42.96130 24.10886 13522 ft 320 kts 207°
2026-04-26 19:27 42.94083 24.09697 13154 ft 319 kts 207°
2026-04-26 19:27 42.92041 24.08508 12817 ft 318 kts 207°
2026-04-26 19:28 42.90012 24.07324 12477 ft 316 kts 207°
2026-04-26 19:28 42.87993 24.06149 12120 ft 315 kts 206°
2026-04-26 19:28 42.85984 24.04985 11734 ft 313 kts 207°
2026-04-26 19:28 42.84013 24.03843 11398 ft 312 kts 206°
2026-04-26 19:29 42.82019 24.02688 11061 ft 311 kts 206°
2026-04-26 19:29 42.80037 24.01541 10690 ft 310 kts 206°
2026-04-26 19:29 42.78062 24.00398 10387 ft 307 kts 206°
2026-04-26 19:29 42.76103 23.99263 10110 ft 305 kts 206°
2026-04-26 19:30 42.74094 23.98366 9833 ft 304 kts 194°
2026-04-26 19:30 42.71999 23.98023 9657 ft 304 kts 187°
2026-04-26 19:30 42.69888 23.97701 9516 ft 305 kts 197°
2026-04-26 19:30 42.68608 23.97008 9414 ft 295 kts 217°
2026-04-26 19:31 42.66881 23.94352 8963 ft 277 kts 252°
2026-04-26 19:31 42.66523 23.91846 8572 ft 269 kts 275°
2026-04-26 19:31 42.66674 23.89315 8174 ft 269 kts 278°
2026-04-26 19:31 42.66833 23.86810 7801 ft 262 kts 277°
2026-04-26 19:32 42.66986 23.84398 7481 ft 251 kts 278°
2026-04-26 19:32 42.67134 23.82084 7166 ft 241 kts 278°
2026-04-26 19:32 42.67276 23.79857 6856 ft 232 kts 278°
2026-04-26 19:32 42.67411 23.77737 6566 ft 224 kts 278°
2026-04-26 19:33 42.67542 23.75668 6282 ft 215 kts 278°
2026-04-26 19:33 42.67668 23.73681 5996 ft 207 kts 278°
2026-04-26 19:33 42.67789 23.71773 5744 ft 197 kts 278°
2026-04-26 19:33 42.67903 23.69961 5480 ft 190 kts 279°
2026-04-26 19:34 42.68014 23.68201 5223 ft 184 kts 279°
2026-04-26 19:34 42.68118 23.66525 4988 ft 173 kts 279°
2026-04-26 19:34 42.68216 23.64949 4761 ft 162 kts 280°
2026-04-26 19:34 42.68309 23.63458 4541 ft 154 kts 279°
2026-04-26 19:35 42.68396 23.62064 4356 ft 144 kts 279°
2026-04-26 19:35 42.68480 23.60724 4166 ft 141 kts 279°
2026-04-26 19:35 42.68563 23.59402 3977 ft 140 kts 278°
2026-04-26 19:35 42.68645 23.58085 3795 ft 140 kts 278°
2026-04-26 19:36 42.68726 23.56772 3610 ft 139 kts 277°
2026-04-26 19:36 42.68753 23.56346 3553 ft 139 kts 277°
2026-04-26 19:36 42.68889 23.54137 3242 ft 141 kts 275°
2026-04-26 19:36 42.68970 23.52825 3061 ft 140 kts 276°
2026-04-26 19:37 42.69020 23.51953 2947 ft 138 kts 276°
2026-04-26 19:37 42.69116 23.50655 2770 ft 137 kts 276°
2026-04-26 19:37 42.69201 23.49349 2584 ft 139 kts 276°
2026-04-26 19:37 42.69244 23.48043 2302 ft 137 kts 274°
2026-04-26 19:38 42.69368 23.46354 2065 ft 136 kts 276°
2026-04-26 19:38 42.69442 23.45061 1931 ft 138 kts 275°
2026-04-26 19:38 42.69528 23.43758 1776 ft 139 kts 275°
2026-04-26 19:38 42.69579 23.42888 1762 ft 134 kts 276°
2026-04-26 19:39 42.69646 23.41803 1754 ft 92 kts 275°
2026-04-26 19:39 42.69680 23.41170 1754 ft 44 kts 273°
2026-04-26 19:39 42.69631 23.40783 1749 ft 41 kts 245°
2026-04-26 19:39 42.69579 23.40641 1753 ft 0 kts 244°
2026-04-26 19:44 42.69578 23.40639 1753 ft 2 kts 244°
2026-04-26 19:44 42.69558 23.40578 1750 ft 8 kts 247°
2026-04-26 19:44 42.69539 23.40586 1750 ft 4 kts 118°
2026-04-26 19:45 42.69526 23.40654 1751 ft 11 kts 98°
2026-04-26 19:45 42.69519 23.40765 1750 ft 13 kts 95°
2026-04-26 19:45 42.69511 23.40892 1751 ft 14 kts 95°
2026-04-26 19:45 42.69502 23.41036 1753 ft 16 kts 95°
2026-04-26 19:46 42.69486 23.41176 1746 ft 14 kts 123°
2026-04-26 19:46 42.69405 23.41202 1753 ft 14 kts 193°
2026-04-26 19:46 42.69327 23.41181 1753 ft 11 kts 191°
2026-04-26 19:46 42.69310 23.41176 1747 ft 1 kts 191°
2026-04-26 19:47 42.69294 23.41172 1753 ft 3 kts 191°
2026-04-26 19:47 42.69275 23.41167 1753 ft 5 kts 191°
2026-04-26 19:47 42.69220 23.41153 1745 ft 7 kts 191°
2026-04-26 19:47 42.69161 23.41137 1753 ft 10 kts 193°
2026-04-26 19:48 42.69119 23.41064 1747 ft 11 kts 249°
2026-04-26 19:48 42.69092 23.40951 1753 ft 14 kts 252°
2026-04-26 19:48 42.69061 23.40818 1743 ft 16 kts 253°
2026-04-26 19:48 42.69084 23.40667 1753 ft 17 kts 286°
2026-04-26 19:49 42.69119 23.40499 1751 ft 19 kts 285°
2026-04-26 19:49 42.69162 23.40322 1747 ft 14 kts 286°
2026-04-26 19:49 42.69146 23.40239 1750 ft 10 kts 206°
2026-04-26 19:49 42.69107 23.40224 1753 ft 0 kts 194°